Regional Weather Roundup
Issued by NWS

Home | Current Version | Previous Version | Graphics & Text | Print | Product List | Glossary On
Versions: 1 2 3 4 5 6 7 8 9 10 11 12 13 14 15 16 17 18 19 20 21 22 23 24 25 26 27 28 29 30 31 32 33 34 35 36 37 38 39 40 41 42 43 44 45 46 47 48 49 50
000
ASUS43 KIND 311109
RWRIN

WEATHER ROUNDUP FOR INDIANA
NATIONAL WEATHER SERVICE INDIANAPOLIS IN
700 AM EDT WED AUG 31 2016

NOTE: "FAIR" INDICATES FEW OR NO CLOUDS BELOW 12,000 FEET WITH NO
SIGNIFICANT WEATHER AND/OR OBSTRUCTIONS TO VISIBILITY.

* - STATION DOES NOT REPORT WEATHER SUCH AS PRECIPITATION OR FOG.

+ - STATION NOT QUALITY CONTROLLED BY THE NATIONAL WEATHER SERVICE.
    USE DATA WITH CAUTION...ESPECIALLY DEWPOINT AND RELATIVE
    HUMIDITY OBSERVATIONS.

INZ001>003-010>013-019-020-311200-
NORTHWEST INDIANA

CITY           SKY/WX    TMP DP  RH WIND       PRES   REMARKS
GARY /AIRPORT/ CLOUDY    73  73 100 NW7       30.03S
KNOX *+          N/A     68  61  77 CALM      30.02S VSB 1
LA PORTE +     CLOUDY   N/A N/A N/A CALM      30.03S
MICHIGAN CITY+ FOG       68  68 100 MISG      30.02S VSB 1/4
MONTICELLO +   CLOUDY    69  65  88 CALM      30.01S FOG
RENSSELAER +     N/A     68  68 100 CALM      30.03S FOG
VALPARAISO     MOCLDY    70  68  93 NW3       30.03S

$$

LMZ046-743>745-311200-
SOUTHERN LAKE MICHIGAN

STATION/POSITION TIME  TEMP    WIND        PRES    WAVE
                       AIR SEA DIR/SP/G            HT
                 (UTC) (F)     (DEG/KT/KT) (MB)    (FT)
BURNS HARBOR     1004   74     330/  6/ 11 1016.9F
MICHIGAN CITY    1000   72     310/  6/  7   N/A
5NW MICH CITY    1100   73 69  330/  8/ 10   N/A     1

$$

INZ004-005-014>016-021>024-311200-
NORTH CENTRAL INDIANA

CITY           SKY/WX    TMP DP  RH WIND       PRES   REMARKS
ELKHART        FOG      N/A N/A N/A CALM      30.02  VSB 1/2
GOSHEN         CLOUDY    69  66  90 W3        30.02R FOG
LOGANSPORT +   MOCLDY    66  66 100 CALM      30.03R FOG
PERU/GRISSOM   MOCLDY    68  68 100 W3        30.02R FOG
ROCHESTER +    CLOUDY    72  72 100 NW5       30.03R FOG
SOUTH BEND     CLOUDY    70  69  97 CALM      30.02S
WARSAW +       FOG       70  70 100 CALM      30.02S VSB 3/4

$$

INZ006>009-017-018-025>027-311200-
NORTHEAST INDIANA

CITY           SKY/WX    TMP DP  RH WIND       PRES   REMARKS
ANGOLA *+      CLOUDY    70  63  78 NW3       30.02R
AUBURN +       CLOUDY    70  68  94 CALM      30.03R FOG
FORT WAYNE     CLOUDY    69  67  93 CALM      30.02S FOG
HUNTINGTON +   CLOUDY    68  67  95 CALM      30.02R FOG

$$

INZ028-029-035-036-043>045-051>053-311200-
WEST CENTRAL INDIANA

CITY           SKY/WX    TMP DP  RH WIND       PRES   REMARKS
CRAWFORDSVL +  FOG       68  68 100 CALM      30.03S VSB 1/4
GREENCASTLE +  FOG       68  68 100 CALM      30.04S VSB 1/4
LAFAYETTE      FOG       69  69 100 CALM      30.02R VSB 3/4
TERRE HAUTE    FOG       69  66  90 CALM      30.03S VSB 1/2

$$

INZ030>032-037>040-046>048-054>057-064-065-311200-
CENTRAL INDIANA

CITY           SKY/WX    TMP DP  RH WIND       PRES   REMARKS
INDIANAPOLIS   PTCLDY    70  69  97 W5        30.03R
-EAGLE CREEK   PTCLDY    70  68  93 CALM      30.02S
KOKOMO *+      MOCLDY    70  68  94 NW5       30.02S
MARION +       CLOUDY    67  67 100 CALM      30.03S FOG
MT COMFORT *+    N/A     68  68 100 CALM      30.04S VSB 1/4
SHELBYVILLE    CLOUDY    70  68  93 CALM      30.02S FOG
ZIONSVILLE +   CLOUDY    67  67  99 CALM      30.04R FOG

$$

INZ033-034-041-042-049-050-058-059-311200-
EAST CENTRAL INDIANA

CITY           SKY/WX    TMP DP  RH WIND       PRES   REMARKS
MUNCIE         PTCLDY    70  68  93 CALM      30.03S FOG

$$

INZ060-061-067>069-081>083-085>088-311200-
SOUTHWEST INDIANA

CITY           SKY/WX    TMP DP  RH WIND       PRES   REMARKS
EVANSVILLE     CLEAR     73  70  90 NW6       30.02R
HUNTINGBURG *+ CLEAR     70  66  88 CALM      30.02R
WASHINGTON +   CLEAR     70  70 100 MISG      30.02S FOG

$$

INZ062-063-066-070>080-084-089>092-311200-
SOUTH CENTRAL AND SOUTHEAST INDIANA

CITY           SKY/WX    TMP DP  RH WIND       PRES   REMARKS
BLOOMINGTON    FOG       69  67  93 CALM      30.03S VSB 1/2
MADISON *+     PTCLDY    68  68 100 CALM      30.04R

$$





USA.gov is the U.S. government's official web portal to all federal, state and local government web resources and services.